Location: Hradec Kralove
(50.2170°N, 15.8330°E)
Time: 04:26:53
(UTC+02:00)

ISS - Visible Passes

Search period start: 16 April 2026 00:00
Search period end: 26 April 2026 00:00
Orbit: 415 x 424 km, 51.6° (Epoch: 15 April)

Date Brightness Start Highest point End Pass type
(mag) Time Alt. Az. Time Alt. Az. Time Alt. Az.
19 Apr -0.9 04:41:42 10° SE 04:42:08 10° SE 04:42:33 10° SE visible
21 Apr -1.9 04:41:05 11° SSW 04:43:40 22° SE 04:46:23 10° E visible
22 Apr -1.6 03:55:29 14° SSE 03:56:25 16° SE 03:58:30 10° E visible
23 Apr -3.1 04:42:45 15° SW 04:45:20 45° SSE 04:48:36 10° E visible
24 Apr -2.6 03:57:01 27° S 03:57:58 32° SSE 04:01:02 10° E visible
25 Apr -1.9 03:11:14 21° SE 03:11:14 21° SE 03:13:21 10° E visible
25 Apr -3.8 04:44:11 13° WSW 04:47:07 82° SSE 04:50:31 10° ENE visible
